TimeCST,TemperatureF,Dew PointF,Humidity,Sea Level PressureIn,VisibilityMPH,Wind Direction,Wind SpeedMPH,Gust SpeedMPH,PrecipitationIn,Events,Conditions,WindDirDegrees,DateUTC
12:15 AM,1.4,-4.0,78,30.55,10.0,WNW,5.8,-,N/A,,Clear,300,2013-12-12 06:15:00
12:35 AM,1.4,-4.0,78,30.55,10.0,West,6.9,-,N/A,,Clear,280,2013-12-12 06:35:00
12:55 AM,1.4,-4.0,78,30.54,10.0,West,6.9,-,N/A,,Clear,260,2013-12-12 06:55:00
1:15 AM,1.4,-4.0,78,30.54,10.0,West,4.6,-,N/A,,Clear,260,2013-12-12 07:15:00
1:35 AM,1.4,-4.0,78,30.54,10.0,WSW,5.8,-,N/A,,Clear,240,2013-12-12 07:35:00
1:55 AM,1.4,-4.0,78,30.54,10.0,SW,9.2,-,N/A,,Clear,230,2013-12-12 07:55:00
2:15 AM,-0.4,-5.8,78,30.54,10.0,SW,8.1,-,N/A,,Clear,230,2013-12-12 08:15:00
2:35 AM,-0.4,-5.8,78,30.54,10.0,SW,6.9,-,N/A,,Clear,230,2013-12-12 08:35:00
2:55 AM,-0.4,-5.8,78,30.54,10.0,WSW,9.2,-,N/A,,Clear,240,2013-12-12 08:55:00
3:15 AM,-0.4,-5.8,78,30.54,10.0,WSW,10.4,-,N/A,,Clear,250,2013-12-12 09:15:00
3:35 AM,-0.4,-5.8,78,30.53,10.0,WSW,8.1,-,N/A,,Clear,240,2013-12-12 09:35:00
3:55 AM,-0.4,-5.8,78,30.52,10.0,WSW,8.1,-,N/A,,Clear,240,2013-12-12 09:55:00
4:15 AM,-0.4,-5.8,78,30.52,10.0,SW,6.9,-,N/A,,Clear,220,2013-12-12 10:15:00
4:35 AM,-0.4,-5.8,78,30.52,10.0,SW,6.9,-,N/A,,Clear,230,2013-12-12 10:35:00
4:55 AM,-2.2,-5.8,85,30.51,10.0,SSW,4.6,-,N/A,,Clear,210,2013-12-12 10:55:00
5:15 AM,-2.2,-7.6,78,30.51,10.0,SW,4.6,-,N/A,,Clear,220,2013-12-12 11:15:00
5:35 AM,-4.0,-7.6,85,30.51,10.0,SSW,4.6,-,N/A,,Clear,200,2013-12-12 11:35:00
5:55 AM,-4.0,-5.8,92,30.50,10.0,SSW,5.8,-,N/A,,Clear,210,2013-12-12 11:55:00
6:15 AM,-2.2,-5.8,85,30.50,10.0,SSW,5.8,-,N/A,,Clear,210,2013-12-12 12:15:00
6:35 AM,-2.2,-5.8,85,30.50,10.0,SSW,6.9,-,N/A,,Clear,210,2013-12-12 12:35:00
6:55 AM,-2.2,-5.8,85,30.50,10.0,South,5.8,-,N/A,,Clear,190,2013-12-12 12:55:00
7:15 AM,-0.4,-5.8,78,30.50,10.0,SSW,6.9,-,N/A,,Clear,200,2013-12-12 13:15:00
7:35 AM,1.4,-4.0,78,30.49,10.0,South,6.9,-,N/A,,Clear,190,2013-12-12 13:35:00
7:55 AM,3.2,-4.0,72,30.49,10.0,South,10.4,-,N/A,,Clear,190,2013-12-12 13:55:00
8:15 AM,3.2,-0.4,85,30.49,10.0,SSW,10.4,-,N/A,,Clear,200,2013-12-12 14:15:00
8:35 AM,5.0,-0.4,78,30.47,10.0,South,12.7,-,N/A,,Clear,190,2013-12-12 14:35:00
8:55 AM,6.8,-0.4,72,30.47,10.0,South,12.7,-,N/A,,Scattered Clouds,190,2013-12-12 14:55:00
9:15 AM,8.6,1.4,73,30.45,10.0,South,15.0,-,N/A,,Scattered Clouds,190,2013-12-12 15:15:00
9:35 AM,10.4,1.4,67,30.44,10.0,SSW,16.1,-,N/A,,Clear,200,2013-12-12 15:35:00
9:55 AM,12.2,1.4,62,30.44,10.0,SSW,13.8,21.9,N/A,,Clear,210,2013-12-12 15:55:00
10:15 AM,12.2,3.2,67,30.44,10.0,SSW,16.1,-,N/A,,Clear,200,2013-12-12 16:15:00
10:35 AM,14.0,3.2,62,30.42,10.0,SSW,18.4,24.2,N/A,,Clear,210,2013-12-12 16:35:00
10:55 AM,15.8,3.2,58,30.41,10.0,SSW,16.1,-,N/A,,Clear,210,2013-12-12 16:55:00
11:15 AM,17.6,5.0,58,30.40,10.0,SSW,17.3,-,N/A,,Clear,210,2013-12-12 17:15:00
11:35 AM,17.6,3.2,53,30.39,10.0,SW,20.7,-,N/A,,Clear,220,2013-12-12 17:35:00
11:55 AM,19.4,6.8,58,30.39,10.0,SW,12.7,19.6,N/A,,Clear,220,2013-12-12 17:55:00
12:15 PM,21.2,8.6,58,30.37,10.0,SW,12.7,-,N/A,,Clear,230,2013-12-12 18:15:00
12:35 PM,21.2,8.6,58,30.36,10.0,WSW,19.6,25.3,N/A,,Clear,240,2013-12-12 18:35:00
12:55 PM,23.0,10.4,59,30.35,10.0,SW,20.7,26.5,N/A,,Clear,230,2013-12-12 18:55:00
1:15 PM,23.0,10.4,59,30.33,10.0,SW,20.7,24.2,N/A,,Clear,220,2013-12-12 19:15:00
1:35 PM,23.0,12.2,63,30.32,10.0,SW,17.3,21.9,N/A,,Clear,230,2013-12-12 19:35:00
1:55 PM,23.0,10.4,59,30.32,10.0,SW,16.1,26.5,N/A,,Clear,230,2013-12-12 19:55:00
2:15 PM,24.8,12.2,59,30.33,10.0,WSW,18.4,23.0,N/A,,Clear,240,2013-12-12 20:15:00
2:55 PM,24.8,12.2,59,30.32,10.0,WSW,13.8,23.0,N/A,,Clear,240,2013-12-12 20:55:00
3:15 PM,24.8,12.2,59,30.32,10.0,SW,16.1,-,N/A,,Clear,230,2013-12-12 21:15:00
3:35 PM,23.0,12.2,63,30.32,10.0,SW,11.5,-,N/A,,Clear,230,2013-12-12 21:35:00
3:55 PM,24.8,14.0,64,30.31,10.0,SW,12.7,18.4,N/A,,Scattered Clouds,230,2013-12-12 21:55:00
4:15 PM,23.0,14.0,68,30.30,10.0,SW,13.8,-,N/A,,Scattered Clouds,230,2013-12-12 22:15:00
4:35 PM,23.0,12.2,63,30.30,10.0,SW,9.2,-,N/A,,Clear,220,2013-12-12 22:35:00
4:55 PM,21.2,12.2,68,30.31,10.0,SSW,8.1,-,N/A,,Clear,210,2013-12-12 22:55:00
5:15 PM,21.2,12.2,68,30.30,10.0,SSW,9.2,-,N/A,,Clear,210,2013-12-12 23:15:00
5:35 PM,21.2,12.2,68,30.30,10.0,SSW,10.4,-,N/A,,Clear,210,2013-12-12 23:35:00
5:55 PM,19.4,12.2,74,30.29,10.0,SSW,9.2,-,N/A,,Clear,200,2013-12-12 23:55:00
6:15 PM,19.4,12.2,74,30.29,10.0,SSW,9.2,-,N/A,,Clear,210,2013-12-13 00:15:00
6:35 PM,21.2,14.0,74,30.29,10.0,SSW,10.4,-,N/A,,Clear,210,2013-12-13 00:35:00
6:55 PM,19.4,14.0,80,30.28,10.0,SSW,9.2,-,N/A,,Clear,210,2013-12-13 00:55:00
7:15 PM,19.4,14.0,80,30.28,10.0,SSW,6.9,-,N/A,,Clear,200,2013-12-13 01:15:00
7:35 PM,19.4,14.0,80,30.28,10.0,SSW,8.1,-,N/A,,Clear,200,2013-12-13 01:35:00
7:55 PM,21.2,14.0,74,30.28,10.0,SSW,9.2,-,N/A,,Clear,200,2013-12-13 01:55:00
8:15 PM,19.4,14.0,80,30.28,10.0,SSW,11.5,-,N/A,,Clear,200,2013-12-13 02:15:00
8:35 PM,21.2,12.2,68,30.28,10.0,SSW,12.7,-,N/A,,Clear,210,2013-12-13 02:35:00
8:55 PM,21.2,12.2,68,30.28,10.0,SSW,11.5,-,N/A,,Clear,210,2013-12-13 02:55:00
9:15 PM,19.4,12.2,74,30.27,10.0,SSW,13.8,-,N/A,,Clear,200,2013-12-13 03:15:00
9:35 PM,19.4,12.2,74,30.27,10.0,SSW,11.5,-,N/A,,Clear,210,2013-12-13 03:35:00
9:55 PM,19.4,12.2,74,30.27,10.0,SSW,10.4,-,N/A,,Clear,210,2013-12-13 03:55:00
10:15 PM,19.4,10.4,68,30.26,10.0,SSW,10.4,-,N/A,,Clear,200,2013-12-13 04:15:00
10:35 PM,17.6,10.4,73,30.26,10.0,SSW,8.1,-,N/A,,Clear,210,2013-12-13 04:35:00
10:55 PM,17.6,10.4,73,30.25,10.0,SSW,6.9,-,N/A,,Clear,200,2013-12-13 04:55:00
11:15 PM,15.8,10.4,79,30.25,10.0,SSW,8.1,-,N/A,,Clear,200,2013-12-13 05:15:00
11:35 PM,17.6,10.4,73,30.24,10.0,SSW,9.2,-,N/A,,Clear,200,2013-12-13 05:35:00
11:55 PM,17.6,10.4,73,30.24,10.0,SSW,6.9,-,N/A,,Clear,210,2013-12-13 05:55:00